OneWeb SL0695

operational
NORAD ID: 61602 Int'l Des: 2024-188 Owner: ONEWEBE Country: UK Constellation: oneweb
LEOCIRCULARPOLARONEWEB_TYPE

About OneWeb SL0695

Description loading...

Live Position

Loading 3D Globe...

Upcoming Passes

Altitude History

Altitude vs Time

uPlot chart will show altitude changes over time

Two-Line Element Set

1 61602U 24188J 26015.59893815 -.00000112 00000-0 -35312-3 0 9993
2 61602 87.8823 51.4569 0001747 114.4249 245.7062 13.11418882 64460
Epoch: Jan 15, 2026 • Age: 20 hours

Current Status

Altitude 1231.9 km
Velocity 7.24 km/s
Sub-Earth Point -34.80°S, 138.85°E
Launch Date Oct 20, 2024
Age 1.2 years
Type internet

Technical Details

Classification Payload
Mass 148.00 kg
Dry Mass 140.00 kg
Total Mass 148.00 kg
Length 1.30 m
Diameter 1.00 m
Span 5.00 m
Shape Trapezoid+2 pan
Manufacturer ONEWUS
Bus Type ARROW
Phase Status In Orbit
Owner/State ONEWEBE/UK

Large Constellations

Loading constellations...